QPF
0.13 0.13 0.16 0.15 0.16 0.18 0.17 0.12 0.10 0.07 0.02 0.01 0.00 0.00 0.00 0.00 0.00 0.00 0.00 0.00 0.00 0.00
0.09 0.13 0.10 0.10 0.13 0.12 0.10 0.09 0.05 0.04 0.03 0.05 0.03 0.02 0.01 0.00 0.00 0.00 0.00 0.00 0.00 0.00
0.00 0.01 0.02 0.05 0.10 0.09 0.06 0.13 0.12 0.03 0.01 0.01 0.02 0.05 0.04 0.02 0.02 0.01 0.00 0.00 0.00 0.00
0.00 0.00 0.00 0.01 0.03 0.03 0.06 0.07 0.09 0.10 0.06 0.04 0.04 0.06 0.06 0.05 0.05 0.02 0.02 0.02 0.01 0.00
0.00 0.00 0.00 0.00 0.01 0.00 0.01 0.03 0.03 0.02 0.03 0.05 0.07 0.06 0.04 0.05 0.05 0.03 0.02 0.02 0.01 0.00
0.00 0.00 0.00 0.00 0.00 0.00 0.00 0.00 0.00 0.01 0.01 0.02 0.05 0.07 0.08 0.08 0.07 0.04 0.02 0.02 0.01 0.00
0.00 0.00 0.00 0.00 0.00 0.00 0.00 0.00 0.00 0.00 0.00 0.00 0.01 0.02 0.04 0.04 0.03 0.03 0.02 0.02 0.04 0.03
0.00 0.00 0.00 0.00 0.00 0.00 0.00 0.00 0.00 0.00 0.01 0.01 0.00 0.00 0.00 0.00 0.00 0.01 0.01 0.02 0.03 0.03
0.00 0.00 0.00 0.00 0.00 0.00 0.00 0.00 0.00 0.00 0.00 0.02 0.04 0.04 0.01 0.00 0.00 0.00 0.00 0.01 0.00 0.01
0.00 0.00 0.00 0.00 0.00 0.00 0.00 0.00 0.00 0.00 0.00 0.00 0.01 0.02 0.02 0.01 0.00 0.00 0.00 0.00 0.01 0.01
0.00 0.00 0.00 0.00 0.00 0.00 0.00 0.00 0.00 0.00 0.00 0.00 0.00 0.00 0.00 0.01 0.01 0.00 0.00 0.00 0.01 0.01
0.00 0.00 0.00 0.00 0.00 0.00 0.00 0.00 0.00 0.00 0.00 0.00 0.00 0.00 0.00 0.01 0.01 0.00 0.00 0.00 0.01 0.01
0.00 0.00 0.00 0.00 0.00 0.00 0.00 0.00 0.00 0.00 0.00 0.00 0.00 0.00 0.00 0.00 0.00 0.00 0.00 0.00 0.00 0.00
0.00 0.00 0.00 0.00 0.00 0.00 0.00 0.00 0.00 0.00 0.00 0.00 0.00 0.00 0.00 0.00 0.00 0.00 0.00 0.00 0.00 0.00
MSLP
1018.16 1018.05 1018.18 1018.84 1019.24 1019.35 1019.50 1019.59 1019.86 1020.50 1021.09 1021.58 1022.30 1022.85 1023.51 1023.98 1024.47 1024.98 1025.37 1025.79 1026.12 1026.16
1018.96 1018.60 1018.33 1017.70 1018.95 1019.39 1019.16 1019.47 1019.81 1020.01 1020.40 1020.84 1021.56 1022.16 1022.62 1023.26 1023.64 1024.07 1024.47 1024.73 1025.00 1025.20
1019.60 1019.29 1018.72 1016.49 1017.71 1018.22 1018.86 1019.15 1019.77 1020.11 1020.24 1020.40 1020.74 1021.39 1021.90 1022.41 1022.64 1023.27 1023.46 1023.72 1024.09 1024.20
1020.00 1019.78 1019.28 1018.59 1018.54 1018.62 1018.63 1018.95 1019.17 1019.54 1019.80 1020.14 1020.41 1020.84 1021.41 1021.70 1022.05 1022.48 1022.52 1022.79 1023.11 1023.11
1020.78 1020.35 1020.05 1019.70 1019.21 1018.75 1018.47 1018.43 1018.76 1019.09 1019.35 1019.63 1019.89 1020.25 1020.69 1020.97 1021.29 1021.47 1021.61 1021.69 1022.16 1022.22
1021.21 1020.72 1020.43 1020.06 1019.67 1019.34 1019.15 1018.57 1018.19 1018.47 1018.87 1018.81 1019.04 1019.50 1019.79 1019.97 1020.23 1020.30 1020.32 1020.41 1020.76 1020.89
1021.49 1020.90 1020.37 1019.98 1019.58 1019.32 1019.05 1018.87 1018.41 1017.72 1017.60 1017.58 1018.06 1018.63 1018.93 1019.14 1019.24 1019.33 1019.32 1019.37 1019.54 1019.59
1020.99 1020.80 1020.31 1019.93 1019.46 1019.15 1018.73 1018.45 1018.27 1017.84 1017.39 1017.41 1017.54 1017.81 1018.01 1018.21 1018.29 1018.36 1018.29 1018.38 1018.38 1018.42
1021.01 1020.73 1020.18 1019.82 1019.31 1018.90 1018.60 1018.34 1018.24 1018.12 1017.91 1017.33 1017.30 1017.33 1017.40 1017.53 1017.28 1017.26 1017.32 1017.33 1017.38 1017.45
1020.86 1020.54 1020.19 1019.62 1019.38 1018.96 1018.73 1018.38 1018.31 1018.24 1018.09 1017.73 1017.23 1016.92 1016.69 1016.71 1017.01 1016.70 1016.46 1016.40 1016.46 1016.66
1020.99 1020.45 1019.77 1019.34 1019.19 1018.84 1018.46 1018.01 1017.84 1017.72 1017.52 1017.44 1017.63 1017.14 1016.70 1016.46 1016.46 1016.27 1016.06 1015.87 1015.82 1015.83
1020.64 1019.93 1019.49 1019.34 1019.12 1018.92 1018.52 1017.98 1017.54 1017.31 1016.87 1016.75 1018.17 1017.94 1017.37 1016.57 1016.04 1015.72 1015.50 1015.47 1015.52 1015.55
1020.96 1020.38 1020.37 1019.96 1019.68 1019.38 1018.63 1018.00 1017.87 1017.94 1017.94 1018.18 1018.46 1018.32 1017.81 1016.97 1016.61 1016.04 1015.79 1015.65 1015.39 1015.29
1021.50 1021.28 1020.89 1020.65 1020.08 1019.61 1018.70 1018.57 1018.73 1018.86 1018.96 1019.08 1019.48 1019.04 1018.68 1018.01 1017.56 1017.50 1016.91 1016.49 1016.09 1015.96
Thickness
5620 5625 5626 5624 5624 5627 5628 5631 5631 5629 5628 5626 5621 5618 5614 5612 5610 5608 5605 5601 5598 5599
5608 5616 5624 5628 5613 5613 5621 5623 5622 5624 5625 5625 5620 5617 5615 5612 5610 5608 5606 5604 5601 5598
5596 5602 5610 5609 5607 5611 5611 5613 5612 5613 5616 5618 5618 5615 5612 5610 5609 5607 5607 5605 5602 5599
5582 5589 5596 5604 5604 5606 5609 5606 5608 5611 5610 5612 5613 5610 5608 5608 5607 5605 5606 5605 5603 5602
5565 5573 5580 5585 5590 5598 5602 5604 5604 5608 5609 5610 5609 5608 5607 5606 5605 5604 5605 5605 5602 5603
5553 5561 5566 5573 5577 5583 5589 5596 5602 5602 5603 5606 5606 5605 5605 5605 5604 5605 5606 5607 5605 5605
5540 5548 5556 5563 5571 5576 5582 5585 5591 5599 5602 5606 5605 5602 5602 5601 5602 5603 5605 5605 5605 5606
5534 5538 5545 5552 5558 5564 5572 5577 5580 5586 5593 5596 5598 5599 5599 5599 5601 5601 5604 5603 5605 5606
5523 5528 5535 5540 5547 5553 5559 5565 5568 5573 5578 5586 5590 5591 5590 5591 5598 5600 5601 5602 5602 5602
5511 5516 5522 5530 5535 5541 5546 5551 5555 5559 5564 5571 5578 5581 5586 5588 5589 5594 5597 5598 5598 5597
5498 5504 5511 5518 5523 5529 5537 5543 5548 5552 5556 5560 5558 5568 5574 5579 5582 5587 5590 5593 5593 5593
5489 5497 5502 5506 5512 5516 5523 5531 5538 5542 5549 5551 5543 5552 5559 5566 5574 5579 5582 5582 5582 5582
5464 5473 5477 5485 5491 5497 5508 5517 5522 5524 5526 5526 5529 5536 5543 5550 5556 5562 5565 5567 5570 5569
5437 5443 5452 5461 5471 5480 5492 5498 5502 5505 5506 5507 5508 5517 5523 5529 5534 5536 5542 5546 5549 5551